Tracking 19854 objects as of 22-Sep-2019
HD Live streaming from Space Station
objects crossing your sky now

FENGYUN 1C DEB

Track FENGYUN 1C DEB now!
10-day predictions


NORAD ID: 31971
Int'l Code: 1999-025CNY
Perigee: 786.5 km
Apogee: 807.2 km
Inclination: 102.3 °
Period: 100.7 minutes
Semi major axis: 7167 km
RCS: 0.0103 m2 (small)
Launch date: May 10, 1999
Source: People's Republic of China (PRC)
Launch site: Taiyaun Space Center, China (TSC)

Note: This is SATELLITE DEBRIS
aabbcc
Your satellite tracking list
Your tracking list is empty




NASA's NSSDC Master Catalog

Two Line Element Set (TLE):
1 31971U 99025CNY 19261.22346272  .00001158  00000-0  47239-3 0  9996
2 31971 102.2708 263.4872 0014436  21.4705  40.0726 14.30607136634241
Source of the keplerian elements: AFSPC